Regional Weather Roundup
Issued by NWS

Home | Current Version | Previous Version | Graphics & Text | Print | Product List | Glossary On
Versions: 1 2 3 4 5 6 7 8 9 10 11 12 13 14 15 16 17 18 19 20 21 22 23 24 25 26 27 28 29 30 31 32 33 34 35 36 37 38 39 40 41 42 43 44 45 46 47 48 49 50
000
ASUS43 KFSD 290410
RWRSD

WEATHER ROUNDUP FOR SOUTH DAKOTA
NATIONAL WEATHER SERVICE SIOUX FALLS SD
1100 PM CDT FRI AUG 28 2015

NOTE: "FAIR" INDICATES FEW OR NO CLOUDS BELOW 12,000 FEET WITH NO
SIGNIFICANT WEATHER AND/OR OBSTRUCTIONS TO VISIBILITY.


SDZ001>005-009-010-012>017-290500-
NORTHWEST AND NORTH CENTRAL SOUTH DAKOTA

CITY           SKY/WX    TMP DP  RH WIND       PRES   REMARKS
BUFFALO          N/A     66  50  56 W7        29.98S
FAITH            N/A     71  59  65 SW6       30.01R
MOBRIDGE       PTCLDY    70  68  93 SE9       29.93F
$$

SDZ012>016-024>037-041>051-057-063-072>074-290500-
SOUTHWEST AND SOUTH CENTRAL SOUTH DAKOTA

CITY           SKY/WX    TMP DP  RH WIND       PRES   REMARKS
RAPID CTY ARPT CLEAR     63  58  83 CALM      30.07S
PIERRE         CLEAR     70  65  84 S8        29.98S
CUSTER         CLEAR     61  50  67 NW3       30.25R
ELLSWORTH AFB  CLEAR     70  59  67 SW5       30.07R
PHILIP         CLEAR     72  62  71 S7        30.01S
PINE RIDGE     CLEAR     59  53  80 CALM      30.10R
WINNER         FAIR      67  62  84 S7        30.03S
$$

SDZ004>011-016>023-039-040-290500-
NORTHEAST SOUTH DAKOTA

CITY           SKY/WX    TMP DP  RH WIND       PRES   REMARKS
ABERDEEN       CLEAR     69  64  84 S13       29.97S
WATERTOWN      CLEAR     63  60  90 S9        30.01S
BROOKINGS      CLEAR     61  55  82 S3        30.05S
SISSETON         N/A     64  62  93 S6        29.98R
$$

SDZ017-020-022-023-036>040-048>070-290500-
SOUTHEAST SOUTH DAKOTA

CITY           SKY/WX    TMP DP  RH WIND       PRES   REMARKS
SIOUX FALLS    PTCLDY    59  56  89 NE3       30.03R
HURON          CLEAR     68  63  84 S8        30.00S
CHAMBERLAIN    CLEAR     64  64  97 SE5       30.02S
MITCHELL       CLEAR     65  63  93 S6        30.03R
YANKTON        CLEAR     61  57  88 CALM      30.02S
$$

ABBREVIATIONS USED IN REMARKS
   TC - TEMPERATURE IN CELSIUS
  WCI - WIND CHILL INDEX
   HX - HEAT INDEX
  VSB - VISIBILITY




USA.gov is the U.S. government's official web portal to all federal, state and local government web resources and services.